AMAZONAS 3

Last updated on Tue Jul 01 2025 00:02:46 GMT+0000 (Coordinated Universal Time)

1 39078U 13006A 25181.55571741 -.00000282 00000+0 00000+0 0 9990 2 39078 0.0474 221.1995 0002772 277.3413 279.3743 1.00272962 41388
UTC large
Height (km)
Speed (km/s)
/
Latitude / Longitude
Inclination (degrees)
Orbital Period (minutes)
Azimuth
Elevation
Range (km)
Doppler Factor

Next 0 passes for location: London (51.5072 / 0.1276)

Sorry there are no passes over London.